STARLINK-1556, 46033

Orbit data source: Space-Track

STARLINK-1556, 46033 is a payload satellite owned by SpaceX/Seattle (US) in LEO that was launched on Fri, 07 Aug 2020 UTC via an FALCON 9 launch vehicle from the Air Force Eastern Test Range (AFETR). Payload-class satellites include a variety of spacecraft equipped with specific instruments for various scientific and technological missions. These include communications satellites like Starlink; space stations such as the ISS; scientific satellites like the Hubble; Earth observation satellites from companies like Planet Labs, Umbra, and HawkEye 360; GPS; miniature CubeSats for education and research; and military/defense satellites.

Loading next visibility...
Identifier
46033, 2020-055G
Orbit
LEO
Country
Flag of USUS
Related business
Manufacturer
SpaceX/Seattle
Mission
Operational Commercial Communications
Bus & Motor
STARLINK, Unknown motor
Mass
260 kg wet, ~248 kg dry
Launch date (UTC)
2020-08-07 (5 years ago)
Launch vehicle
FALCON 9
Launch site
Air Force Eastern Test Range (AFETR)
Object type
Payload
Rocket body
Debris
Shape & HBR
Box + 1 Pan, 10.1 m
Radar Cross Section
13.562 m², Large (>1 m²)

Expand to show TLE details & history
Last TLE update: 6 hours ago

TLE from 6 hours ago
0 STARLINK-1556
1 46033U 20055G   25312.18876052 -.00015139  00000-0 -10010-2 0  9993
2 46033  53.0548 312.0560 0001200  15.0707 345.0318 15.06346629290550
Epoch: 2025-11-08T04:31Z
TLE epoch observation values (Epoch: 2025-11-08T04:31:48.908Z)
Latitude
-0.00001°
Longitude
-163.51974°
Altitude
547.451 km
Speed
7.59 km/s
True Right ascension
20h 48m 13s
True Declination
0° 00' 00"
Sunlit
Object was in daylight at epoch
Visualization orbit readout
Latitude
Unknown
Longitude
Unknown
Altitude
Unknown
Speed
Unknown
Apparent Right ascension
Unknown
Apparent Declination
Unknown
Sunlit
N/A
Visualization observer readout
Local Sidereal Time
06:54:34
Azimuth
Unknown
Elevation
Unknown
Doppler factor
Unknown
Orbital elements
Apogee altitude
548.477 km
Perigee altitude
546.815 km
Semi-major axis
6,925.783 km
Eccentricity
0.00012
Inclination
53.0548°
RAAN
312.056°
Arg. of periapsis
15.0707°
True anomaly
345.02825°
Mean anomaly
345.0318°
Eccentric anomaly
345.03002°
Mean motion
3.76565 °/min
Orbital period
95.6 mins
BSTAR
-0.001001
Loading maneuver chart data...
Computing Atmospheric mass density...
Loading historical data...
Loading historical data...
Loading historical data...
Loading historical data...
Loading historical data...
Loading historical data...
Loading historical data...

Documentation

Showing up to 5 results
|